Regional Weather Roundup
Issued by NWS

Home | Current Version | Previous Version | Graphics & Text | Print | Product List | Glossary On
Versions: 1 2 3 4 5 6 7 8 9 10 11 12 13 14 15 16 17 18 19 20 21 22 23 24 25 26 27 28 29 30 31 32 33 34 35 36 37 38 39 40 41 42 43 44 45 46 47 48 49 50
000
ASUS43 KDTX 180601
RWRMI
MICHIGAN HOURLY REGIONAL WEATHER ROUNDUP
NATIONAL WEATHER SERVICE DETROIT/PONTIAC MI
200 AM EDT THU SEP 18 2014

NOTE: "FAIR" INDICATES FEW OR NO CLOUDS BELOW 12,000 FEET WITH NO
SIGNIFICANT WEATHER AND/OR OBSTRUCTION TO VISIBILITY.

MIZ047>049-052>055-059>063-066>070-074>076-081>083-180700-
SOUTHEAST LOWER MICHIGAN

CITY           SKY/WX    TMP DP  RH WIND       PRES   REMARKS
ADRIAN         CLEAR     47  45  93 N5        30.04S
6HR MIN TEMP:  46; 6HR MAX TEMP:  60;

ALMA           CLEAR     45  44  96 CALM      30.05R
ANN ARBOR      CLEAR     43  40  89 CALM      30.03S
BAD AXE        PTCLDY    45  45 100 CALM      30.04R FOG
6HR MIN TEMP:  43; 6HR MAX TEMP:  56;

CARO           CLEAR     47  46  95 N5        30.03R
DETROIT CITY   CLEAR     56  47  71 NW3       30.02S
6HR MIN TEMP:  54; 6HR MAX TEMP:  65;

DETROIT        PTCLDY    52  46  80 NW3       30.03S
6HR MIN TEMP:  51; 6HR MAX TEMP:  62;

FLINT          CLEAR     49  45  86 CALM      30.04S
6HR MIN TEMP:  47; 6HR MAX TEMP:  61;

GROSSE ILE     CLEAR     52  46  82 NW3       30.01S
HILLSDALE      CLEAR     44  44  98 CALM      30.04R
6HR MIN TEMP:  44; 6HR MAX TEMP:  52;

HOWELL         CLEAR     46  45  96 CALM      30.03S
6HR MIN TEMP:  46; 6HR MAX TEMP:  55;


CITY           SKY/WX    TMP DP  RH WIND       PRES   REMARKS
JACKSON        CLEAR     44  42  93 CALM      30.04S
6HR MIN TEMP:  44; 6HR MAX TEMP:  56;

LAMBERTVILLE   CLEAR     46  45  93 CALM      30.03S
LANSING        CLEAR     46  43  89 CALM      30.05R FOG
6HR MIN TEMP:  45; 6HR MAX TEMP:  57;

LAPEER         FOG       42  42  97 CALM      30.03S VSB 3/4
MASON          CLEAR     44  43  97 CALM      30.04S FOG
MONROE         CLEAR     46  45  93 CALM      30.01S
MT. CLEMENS    CLEAR     52  45  77 NW2       30.01S
6HR MIN TEMP:  50; 6HR MAX TEMP:  59;

PONTIAC        CLEAR     53  45  74 NW6       30.02S
6HR MIN TEMP:  50; 6HR MAX TEMP:  61;

PORT HOPE        N/A     57  52  83 N13       30.02R
6HR MIN TEMP:  53; 6HR MAX TEMP:  59;

PORT HURON     FOG       43  43 100 CALM      30.02R VSB 3/4
TRI CITIES     CLEAR     51  46  83 N9        30.05R
6HR MIN TEMP:  50; 6HR MAX TEMP:  61;

TROY           CLEAR     56  46  69 NW6       30.04S
SAGINAW HB     CLEAR     50  46  87 NW6       30.03S
$$
MIZ043>046-050>051-056>058-064>065-071>073-077>080-180700-
SOUTHWEST LOWER MICHIGAN

CITY           SKY/WX    TMP DP  RH WIND       PRES   REMARKS
BATTLE CREEK   CLEAR     46  44  93 CALM      30.05R
6HR MIN TEMP:  46; 6HR MAX TEMP:  58;

BENTON HARBOR  CLEAR     43  42  97 CALM      30.04S
6HR MIN TEMP:  43; 6HR MAX TEMP:  54;

BIG RAPIDS     CLEAR     46  46 100 CALM      30.05S
6HR MIN TEMP:  44; 6HR MAX TEMP:  56;

COLDWATER      CLEAR     46  46  97 CALM      30.04R FOG
6HR MIN TEMP:  46; 6HR MAX TEMP:  60;

FREMONT        FAIR      44  43  97 CALM      30.04R
HOLLAND        CLEAR     47  44  90 CALM      30.05R
6HR MIN TEMP:  46; 6HR MAX TEMP:  56;

GRAND RAPIDS   CLEAR     48  44  86 CALM      30.05R
6HR MIN TEMP:  47; 6HR MAX TEMP:  60;

IONIA          FAIR      46  45  96 CALM      30.04R
KALAMAZOO      CLEAR     45  43  93 CALM      30.05R FOG
6HR MIN TEMP:  45; 6HR MAX TEMP:  59;

LUDINGTON      CLOUDY    50  49  96 NE3       30.05R
6HR MIN TEMP:  47; 6HR MAX TEMP:  57;

MARSHALL       FOG       41  41  98 CALM      30.04R VSB 1/2
MOUNT PLEASANT CLEAR     46  45  97 CALM      30.04S
6HR MIN TEMP:  43; 6HR MAX TEMP:  57;

MUSKEGON       CLEAR     48  44  86 MISG      30.04S
6HR MIN TEMP:  47; 6HR MAX TEMP:  58;

SOUTH HAVEN    CLEAR     45  44  98 CALM      30.04S
$$
MIZ016>042-180700-
NORTHERN LOWER MICHIGAN

CITY           SKY/WX    TMP DP  RH WIND       PRES   REMARKS
ALPENA         CLOUDY    49  45  86 N10       30.08R
6HR MIN TEMP:  49; 6HR MAX TEMP:  60; 6HR PCP: TRACE;

BEAVER ISLAND  CLOUDY    47  41  80 NE13      30.11R
6HR MIN TEMP:  46; 6HR MAX TEMP:  52;

BELLAIRE       CLOUDY    51  46  82 NE5       30.07S
6HR MIN TEMP:  51; 6HR MAX TEMP:  58;

CADILLAC       CLOUDY    46  46 100 CALM      30.05S
CHARLEVOIX     CLOUDY    50  45  83 E7        30.11R
6HR MIN TEMP:  50; 6HR MAX TEMP:  56;

FRANKFORT      CLOUDY    54  45  71 NE5       30.07R
GAYLORD        CLOUDY    47  44  90 NE7       30.07R
6HR MIN TEMP:  47; 6HR MAX TEMP:  56;

GRAYLING       CLOUDY    49  49  99 CALM      30.07R
6HR MIN TEMP:  43; 6HR MAX TEMP:  54;

HARBOR SPRINGS CLOUDY    47  43  85 NE5       30.08S
HOUGHTON LAKE  PTCLDY    45  44  97 N3        30.06R
6HR MIN TEMP:  45; 6HR MAX TEMP:  57;

MANISTEE       CLOUDY    54  46  76 NE5       30.07R
OSCODA         MOCLDY    52  49  90 N8G16     30.04R
PELLSTON       CLOUDY    47  43  86 N7        30.10R
6HR MIN TEMP:  45; 6HR MAX TEMP:  55; 6HR PCP: TRACE;

ROGERS CITY    CLOUDY    47  44  87 N7        30.10R
TRAVERSE CITY  CLOUDY    54  45  71 N7        30.06S
6HR MIN TEMP:  54; 6HR MAX TEMP:  60;

$$
MIZ007>008-015-180700-
EASTERN UPPER MICHIGAN

CITY           SKY/WX    TMP DP  RH WIND       PRES   REMARKS
KINROSS        CLOUDY    41  37  87 N6        30.12R
6HR MIN TEMP:  41; 6HR MAX TEMP:  50;

MACKINAC ISLAN CLOUDY    45  40  82 NE12      30.10R
6HR MIN TEMP:  45; 6HR MAX TEMP:  51;

NEWBERRY       CLOUDY    41  36  81 N7        30.12R
S. S. MARIE    CLOUDY    41  33  73 NE7       30.12R
6HR MIN TEMP:  41; 6HR MAX TEMP:  48;

$$
MIZ004>006-011>014-085-180700-
CENTRAL UPPER MICHIGAN

CITY           SKY/WX    TMP DP  RH WIND       PRES   REMARKS
MANISTIQUE     CLOUDY    42  37  84 N3        30.13R
ESCANABA       CLOUDY    43  36  75 NE12      30.14R
6HR MIN TEMP:  43; 6HR MAX TEMP:  48;

MENOMINEE      CLOUDY    45  36  70 NE10      30.12R
6HR MIN TEMP:  45; 6HR MAX TEMP:  55;

SAWYER-GWINN   CLOUDY    41  34  75 NE7       30.13S
$$
MIZ001>003-009>011-084-180700-
WESTERN UPPER MICHIGAN

CITY           SKY/WX    TMP DP  RH WIND       PRES   REMARKS
IRON MOUNTAIN  CLOUDY    41  35  79 NE5       30.13R
6HR MIN TEMP:  41; 6HR MAX TEMP:  50;

HOUGHTON       CLEAR     33  29  85 N3        30.16R
6HR MIN TEMP:  32; 6HR MAX TEMP:  40;

COPPER HARBOR    N/A     44  35  70 E7        30.16R
6HR MIN TEMP:  43; 6HR MAX TEMP:  45;

IRONWOOD       CLOUDY    43  41  93 E8        30.11S
6HR MIN TEMP:  43; 6HR MAX TEMP:  46;

$$

ABBREVIATIONS USED IN REMARKS
   TC - TEMPERATURE IN CELSIUS
  WCI - WIND CHILL INDEX
   HX - HEAT INDEX
  VSB - VISIBILITY




USA.gov is the U.S. government's official web portal to all federal, state and local government web resources and services.